STARLINK-1493, 45759

Orbit data source: Space-Track

STARLINK-1493, 45759 is a payload satellite owned by SpaceX/Seattle (US) in LEO that was launched on Sat, 13 Jun 2020 UTC via an FALCON 9 launch vehicle from the Air Force Eastern Test Range (AFETR). Payload-class satellites include a variety of spacecraft equipped with specific instruments for various scientific and technological missions. These include communications satellites like Starlink; space stations such as the ISS; scientific satellites like the Hubble; Earth observation satellites from companies like Planet Labs, Umbra, and HawkEye 360; GPS; miniature CubeSats for education and research; and military/defense satellites.

Loading next visibility...
Identifier
45759, 2020-038AF
Orbit
LEO
Country
Flag of USUS
Related business
Manufacturer
SpaceX/Seattle
Mission
Operational Commercial Communications
Bus & Motor
STARLINK, Unknown motor
Mass
260 kg wet, ~248 kg dry
Launch date (UTC)
2020-06-13 (5 years ago)
Launch vehicle
FALCON 9
Launch site
Air Force Eastern Test Range (AFETR)
Object type
Payload
Rocket body
Debris
Shape & HBR
Box + 1 Pan, 10.1 m
Radar Cross Section
13.562 m², Large (>1 m²)

Expand to show TLE details & history
Last TLE update: 1 day ago

TLE from 1 day ago
0 STARLINK-1493
1 45759U 20038AF  25301.15949415  .00000511  00000-0  53201-4 0  9994
2 45759  53.0536  91.5674 0001270  89.6213 270.4922 15.06398854296490
Epoch: 2025-10-28T03:49Z
TLE epoch observation values (Epoch: 2025-10-28T03:49:40.294Z)
Latitude
0.00001°
Longitude
-2.60146°
Altitude
548.087 km
Speed
7.589 km/s
True Right ascension
06h 06m 16s
True Declination
0° 00' 00"
Sunlit
Object was in full shadow at epoch
Visualization orbit readout
Latitude
Unknown
Longitude
Unknown
Altitude
Unknown
Speed
Unknown
Apparent Right ascension
Unknown
Apparent Declination
Unknown
Sunlit
N/A
Visualization observer readout
Local Sidereal Time
09:56:21
Azimuth
Unknown
Elevation
Unknown
Doppler factor
Unknown
Orbital elements
Apogee altitude
548.365 km
Perigee altitude
546.606 km
Semi-major axis
6,925.623 km
Eccentricity
0.00013
Inclination
53.0536°
RAAN
91.5674°
Arg. of periapsis
89.6213°
True anomaly
270.47765°
Mean anomaly
270.4922°
Eccentric anomaly
270.48492°
Mean motion
3.76578 °/min
Orbital period
95.6 mins
BSTAR
0.000053201
Loading maneuver chart data...
Computing Atmospheric mass density...
Loading historical data...
Loading historical data...
Loading historical data...
Loading historical data...
Loading historical data...
Loading historical data...
Loading historical data...

Documentation

Showing up to 5 results
|